Aurora, CO (80042)

3:34 PM MDT on August 04, 2015 (GMT -0600)
UDFCD | | Change Station
CLOSE
Current Station
Personal Weather Station
Location: Aurora, CO
Elevation: 5463 ft
Nearby Weather Stations

Elev 5463 ft 39.71 °N, 104.81 °W | Updated 29 minutes ago

Partly Cloudy
Partly Cloudy
86 °F
Feels Like 83 °F
N
5
Wind Variable Wind from West
Gusts 9.0 mph

Today
High -- | Low -- °F
--% Chance of Precip.
Yesterday
High -- | Low -- °F
Precip. -- in
6:00 AM 8:09 PM
Waning Gibbous, 74% visible
Pressure 29.84 in
Visibility 10.0 miles
Clouds Few 7000 ft
Few 12000 ft
Scattered Clouds 22000 ft
Heat Index 83 °F
Dew Point 12 °F
Humidity 19%
Rainfall in
Snow Depth Not available.
UV 8 out of 12
Pollen 7.60 out of 12
Air Quality Not available.
Flu Activity Not available.
METAR KBKF 042058Z 32004G16KT 10SM FEW070 FEW120 SCT220 31/04 A3007 RMK AO2A SLP103 T03060043 56010

More Conditions Fewer Conditions

Pressure 29.84 in
Visibility 10.0 miles
Clouds Few 7000 ft
Few 12000 ft
Scattered Clouds 22000 ft
Heat Index 83 °F
Dew Point 12 °F
Humidity 19%
Rainfall in
Snow Depth Not available.
UV 8 out of 12
Pollen 7.60 out of 12
Air Quality Not available.
Flu Activity Not available.
METAR KBKF 042058Z 32004G16KT 10SM FEW070 FEW120 SCT220 31/04 A3007 RMK AO2A SLP103 T03060043 56010

More Conditions Fewer Conditions

10-Day Weather Forecast

×

Almanac

Astronomy

Aug. 04, 2015 Rise Set
Actual Time
Civil Twilight
Nautical Twilight
Astronomical Twilight
Moon
Length of Visible Light
Length of Day
Tomorrow will be .
, % of the Moon is Illuminated

Today's Extremes

State Highs State Lows

Community

WunderPhotos

Upload Photos

1,843,990 photos uploaded!

WunderBlogs® & News

Nearby

Air Quality

  Air Quality AQ Index Pollutant
Not available.

Snow Depth

Station Depth Elevation

Earthquake Activity

City Distance Mag. Time & Date
Minimum magnitude displayed is 2.5.

Coastal Water Temperatures

Place Temperature

Stations

Nearby Weather Stations

Station Location Temp. Windchill Dew Point Humidity Wind Precip. Elev Updated Type